Coolangatta Observation History
Time Wind Speed Temp Pressure Rel. Hum Rain
22/12:00pm S 20-31 kts 27.0°c 1008.8 hPa 62% 0.2mm
22/11:30am S 21-44 kts 25.1°c 1009.2 hPa 66% 0.2mm
22/11:00am SSE 28-41 kts 27.0°c 1009.1 hPa 54% 0.2mm
22/10:51am SSE 24-38 kts 27.3°c 1009.2 hPa 52% 0.2mm
22/10:30am S 18-28 kts 26.1°c 1009.3 hPa 61% 0.2mm
22/10:01am S 17-27 kts 23.6°c 1009.6 hPa 74% 0.0mm
22/10:00am S 16-25 kts 23.4°c 1009.6 hPa 76% 0.0mm
22/09:30am S 22-32 kts 25.1°c 1009.3 hPa 63% 0.0mm
22/09:00am S 21-32 kts 26.1°c 1009.4 hPa 64% 22.0mm
22/08:30am SSE 23-37 kts 24.9°c 1009.2 hPa 66% 22.0mm
22/08:22am S 22-37 kts 25.7°c 1009.0 hPa 60% 22.0mm
22/08:00am S 17-27 kts 25.2°c 1008.8 hPa 65% 22.0mm
22/07:30am S 26-39 kts 24.7°c 1008.6 hPa 71% 22.0mm
22/07:27am S 25-38 kts 25.0°c 1008.6 hPa 69% 22.0mm
22/07:00am S 20-31 kts 24.6°c 1008.5 hPa 68% 22.0mm
22/06:30am S 16-27 kts 23.4°c 1008.6 hPa 77% 22.0mm
22/06:00am S 17-27 kts 23.7°c 1008.4 hPa 75% 22.0mm
22/05:32am S 15-25 kts 23.3°c 1008.3 hPa 80% 22.0mm
22/05:30am S 15-22 kts 23.3°c 1008.2 hPa 80% 22.0mm
22/05:00am S 16-27 kts 23.8°c 1007.8 hPa 78% 21.8mm
22/04:34am S 17-27 kts 23.5°c 1007.7 hPa 81% 21.8mm
22/04:30am S 18-26 kts 23.8°c 1007.6 hPa 80% 21.8mm
22/04:23am S 15-26 kts 23.8°c 1007.6 hPa 80% 21.8mm
22/04:00am S 15-23 kts 23.0°c 1007.8 hPa 87% 21.8mm
22/03:30am S 15-26 kts 22.7°c 1007.6 hPa 91% 21.8mm
22/03:23am S 16-26 kts 22.6°c 1007.7 hPa 92% 21.8mm
22/03:00am S 13-22 kts 22.6°c 1007.7 hPa 91% 21.4mm
22/02:55am S 12-22 kts 22.5°c 1007.8 hPa 92% 21.4mm
22/02:30am S 12-19 kts 22.4°c 1008.0 hPa 95% 19.8mm
22/02:25am S 13-21 kts 22.4°c 1008.0 hPa 94% 19.6mm
22/02:08am S 15-25 kts 22.6°c 1007.9 hPa 94% 16.8mm
22/02:01am S 12-19 kts 22.8°c 1007.8 hPa 94% 16.6mm
22/02:00am S 11-19 kts 22.8°c 1007.8 hPa 94% 16.6mm
22/01:33am S 14-22 kts 23.2°c 1008.2 hPa 96% 14.0mm
22/01:30am S 13-19 kts 23.2°c 1008.0 hPa 97% 13.4mm
22/01:26am S 15-25 kts 23.0°c 1008.1 hPa 97% 13.4mm
22/01:25am S 15-25 kts 23.1°c 1008.1 hPa 97% 13.4mm
22/01:22am S 16-25 kts 23.0°c 1008.3 hPa 97% 13.4mm
22/01:21am S 17-25 kts 23.0°c 1008.3 hPa 97% 13.4mm
22/01:15am S 17-27 kts 22.6°c 1008.2 hPa 97% 13.4mm
22/01:03am S 16-24 kts 22.7°c 1008.8 hPa 96% 10.4mm
22/01:00am S 15-22 kts 23.2°c 1008.6 hPa 95% 8.8mm
22/12:55am S 15-23 kts 23.0°c 1008.5 hPa 95% 8.8mm
22/12:37am S 19-32 kts 22.1°c 1008.7 hPa 96% 8.6mm
22/12:31am S 15-30 kts 22.7°c 1009.2 hPa 94% 4.0mm
22/12:30am S 14-24 kts 23.1°c 1009.1 hPa 93% 2.4mm
22/12:18am S 13-19 kts 23.4°c 1008.9 hPa 93% 1.2mm
22/12:00am S 13-22 kts 23.8°c 1009.1 hPa 89% 0.8mm
Time Wind Speed Temp Pressure Rel. Hum Rain
21/11:30pm S 13-23 kts 24.6°c 1009.1 hPa 85% 0.8mm
21/11:00pm S 11-16 kts 24.5°c 1009.1 hPa 85% 0.8mm
21/10:30pm S 11-17 kts 24.3°c 1009.2 hPa 86% 0.8mm
21/10:00pm S 14-21 kts 24.5°c 1009.4 hPa 83% 0.8mm
21/09:48pm S 15-25 kts 24.5°c 1009.6 hPa 81% 0.8mm
21/09:30pm S 11-19 kts 25.6°c 1009.5 hPa 76% 0.8mm
21/09:00pm SSE 15-23 kts 25.9°c 1009.5 hPa 74% 0.8mm
21/08:30pm S 13-19 kts 25.7°c 1009.4 hPa 75% 0.8mm
21/08:11pm S 15-25 kts 25.9°c 1009.2 hPa 75% 0.8mm
21/08:00pm S 11-18 kts 25.6°c 1009.1 hPa 77% 0.8mm
21/07:30pm S 13-19 kts 25.7°c 1008.9 hPa 76% 0.8mm
21/07:00pm S 14-21 kts 26.0°c 1008.7 hPa 74% 0.8mm
21/06:37pm S 15-25 kts 26.1°c 1008.5 hPa 72% 0.8mm
21/06:30pm S 14-21 kts 26.1°c 1008.6 hPa 73% 0.8mm
21/06:00pm S 15-21 kts 26.4°c 1008.2 hPa 72% 0.8mm
21/05:30pm SSE 19-27 kts 26.8°c 1007.8 hPa 70% 0.8mm
21/05:13pm SSE 21-31 kts 28.1°c 1007.5 hPa 65% 0.8mm
21/05:00pm SSE 21-30 kts 28.2°c 1007.2 hPa 62% 0.8mm
21/04:36pm SSE 22-32 kts 28.1°c 1007.2 hPa 62% 0.8mm
21/04:30pm SSE 18-26 kts 28.6°c 1007.2 hPa 62% 0.8mm
21/04:00pm SSE 20-31 kts 28.7°c 1006.9 hPa 60% 0.8mm
21/03:54pm SSE 21-31 kts 29.3°c 1006.9 hPa 59% 0.8mm
21/03:30pm SSE 21-28 kts 29.5°c 1006.8 hPa 60% 0.8mm
21/03:00pm SSE 22-31 kts 29.8°c 1006.7 hPa 56% 0.8mm
21/02:43pm SSE 20-30 kts 30.4°c 1006.9 hPa 58% 0.8mm
21/02:30pm SSE 20-28 kts 30.2°c 1007.1 hPa 55% 0.8mm
21/02:00pm SSE 20-32 kts 29.9°c 1007.5 hPa 56% 0.8mm
21/01:52pm SSE 20-32 kts 30.1°c 1007.5 hPa 54% 0.8mm
21/01:30pm SSE 22-30 kts 30.0°c 1007.9 hPa 56% 0.8mm
21/01:00pm SSE 24-32 kts 30.3°c 1008.1 hPa 56% 0.8mm
21/12:48pm SSE 20-30 kts 29.7°c 1008.2 hPa 57% 0.8mm
21/12:30pm SSE 17-24 kts 30.2°c 1008.3 hPa 58% 0.8mm
21/12:14pm SSE 19-29 kts 30.1°c 1008.5 hPa 60% 0.8mm
21/12:00pm SSE 18-27 kts 29.5°c 1008.5 hPa 60% 0.8mm
21/11:37am SSE 15-25 kts 30.4°c 1008.7 hPa 62% 0.8mm
21/11:30am SSE 18-27 kts 29.3°c 1008.7 hPa 62% 0.8mm
21/11:16am SSE 17-28 kts 28.0°c 1008.9 hPa 67% 0.8mm
21/11:00am SSE 16-25 kts 28.7°c 1009.1 hPa 67% 0.8mm
21/10:51am SSE 17-27 kts 28.6°c 1009.1 hPa 67% 0.8mm
21/10:30am SSE 17-23 kts 28.4°c 1009.2 hPa 71% 0.8mm
21/10:00am SSE 11-17 kts 25.8°c 1009.3 hPa 88% 0.8mm
21/09:34am SSE 15-25 kts 24.4°c 1009.2 hPa 94% 0.8mm
21/09:30am SSE 15-23 kts 24.2°c 1009.2 hPa 93% 0.8mm
21/09:00am SE 15-21 kts 25.0°c 1008.9 hPa 88% 0.0mm
21/08:59am SE 15-21 kts 25.3°c 1008.9 hPa 87% 0.0mm
21/08:30am S 12-19 kts 27.3°c 1008.5 hPa 74% 0.0mm
21/08:00am SSW 11-17 kts 26.4°c 1008.3 hPa 77% 0.0mm
21/07:30am S 10-16 kts 25.8°c 1008.2 hPa 80% 0.0mm
21/07:00am S 9-11 kts 25.0°c 1008.0 hPa 82% 0.0mm
21/06:30am SSW 7-10 kts 24.6°c 1007.7 hPa 86% 0.0mm
21/06:00am SSW 9-13 kts 24.3°c 1007.4 hPa 87% 0.0mm
21/05:30am S 9-12 kts 24.1°c 1007.1 hPa 89% 0.0mm
21/05:00am S 8-11 kts 24.1°c 1006.8 hPa 89% 0.0mm
21/04:30am SSW 8-11 kts 24.2°c 1006.5 hPa 86% 0.0mm
21/04:00am S 7-11 kts 24.2°c 1006.4 hPa 84% 0.0mm
21/03:57am S 7-11 kts 24.4°c 1006.4 hPa 84% 0.0mm
21/03:32am S 7-10 kts 24.8°c 1006.4 hPa 82% 0.0mm
21/03:30am S 7-10 kts 24.7°c 1006.4 hPa 82% 0.0mm
21/03:00am SSW 7-10 kts 24.7°c 1006.4 hPa 81% 0.0mm
21/02:30am S 7-9 kts 24.8°c 1006.6 hPa 82% 0.0mm
21/02:00am S 5-7 kts 24.7°c 1006.6 hPa 81% 0.0mm
21/01:30am SE 7-10 kts 25.2°c 1006.8 hPa 79% 0.0mm
21/01:00am SSW 7-11 kts 25.1°c 1007.7 hPa 79% 0.0mm
21/12:30am S 7-11 kts 25.2°c 1008.1 hPa 81% 0.0mm
21/12:00am S 9-14 kts 25.1°c 1008.6 hPa 82% 0.0mm
Time Wind Speed Temp Pressure Rel. Hum Rain
20/11:30pm SSW 9-15 kts 25.2°c 1009.0 hPa 82% 0.0mm
20/11:00pm SSW 10-14 kts 25.4°c 1009.3 hPa 82% 0.0mm
20/10:30pm S 9-11 kts 25.5°c 1009.0 hPa 83% 0.0mm
20/10:00pm S 7-9 kts 25.1°c 1008.8 hPa 85% 0.0mm
20/09:30pm S 7-10 kts 25.1°c 1008.6 hPa 84% 0.0mm
20/09:00pm S 5-7 kts 25.3°c 1008.4 hPa 84% 0.0mm
20/08:30pm S 5-7 kts 25.3°c 1008.1 hPa 83% 0.0mm
20/08:00pm S 4-5 kts 25.2°c 1007.4 hPa 83% 0.0mm
20/07:30pm SSE 6-7 kts 25.3°c 1006.9 hPa 81% 0.0mm
20/07:00pm SE 7-9 kts 25.6°c 1006.7 hPa 79% 0.0mm
20/06:30pm SE 8-10 kts 26.2°c 1006.6 hPa 75% 0.0mm
20/06:00pm SE 9-12 kts 26.6°c 1006.2 hPa 73% 0.0mm
20/05:30pm SE 10-14 kts 27.4°c 1006.1 hPa 67% 0.0mm
20/05:00pm SE 11-16 kts 28.1°c 1005.9 hPa 68% 0.0mm
20/04:30pm SE 14-19 kts 27.9°c 1005.8 hPa 65% 0.0mm
20/04:00pm SE 14-18 kts 28.2°c 1005.9 hPa 63% 0.0mm
20/03:30pm SE 15-19 kts 28.8°c 1006.0 hPa 61% 0.0mm
20/03:00pm SE 16-21 kts 28.4°c 1006.1 hPa 60% 0.0mm
20/02:30pm SE 14-22 kts 30.3°c 1006.1 hPa 56% 0.0mm
20/02:00pm SE 14-19 kts 30.0°c 1006.7 hPa 59% 0.0mm
20/01:30pm ESE 15-19 kts 30.2°c 1007.0 hPa 54% 0.0mm
20/01:00pm ESE 17-21 kts 29.7°c 1007.3 hPa 54% 0.0mm
20/12:30pm ESE 15-20 kts 30.3°c 1007.7 hPa 50% 0.0mm
20/12:00pm ESE 16-19 kts 30.2°c 1007.9 hPa 49% 0.0mm
20/11:30am SE 14-19 kts 30.6°c 1008.2 hPa 51% 0.0mm
20/11:00am SE 13-19 kts 30.2°c 1008.6 hPa 48% 0.0mm
20/10:30am SE 14-20 kts 30.1°c 1009.0 hPa 52% 0.0mm
20/10:00am SE 13-18 kts 29.6°c 1009.3 hPa 54% 0.0mm
20/09:30am S 8-11 kts 28.5°c 1009.3 hPa 60% 0.0mm
20/09:00am SSE 6-10 kts 27.5°c 1009.3 hPa 66% 0.0mm
20/08:30am SSW 8-11 kts 26.9°c 1009.2 hPa 69% 0.0mm
20/08:00am S 9-12 kts 27.0°c 1009.1 hPa 68% 0.0mm
20/07:30am S 7-9 kts 26.3°c 1008.8 hPa 73% 0.0mm
20/07:00am S 6-10 kts 25.4°c 1008.7 hPa 80% 0.0mm
20/06:30am SSW 5-7 kts 23.9°c 1008.5 hPa 86% 0.0mm
20/06:00am SSW 3-4 kts 22.6°c 1008.3 hPa 91% 0.0mm
20/05:30am S 4 kts 22.4°c 1008.1 hPa 91% 0.0mm
20/05:00am SSW 5-6 kts 22.7°c 1007.8 hPa 91% 0.0mm
20/04:30am SSW 4-5 kts 22.3°c 1007.6 hPa 91% 0.0mm
20/04:00am S 4-5 kts 22.4°c 1007.4 hPa 91% 0.0mm
20/03:30am S 3-5 kts 22.8°c 1007.2 hPa 90% 0.0mm
20/03:00am S 5-6 kts 22.6°c 1007.1 hPa 89% 0.0mm
20/02:30am S 6-7 kts 23.2°c 1007.3 hPa 89% 0.0mm
20/02:00am S 5-7 kts 23.0°c 1007.1 hPa 92% 0.0mm
20/01:30am SW 3-4 kts 22.6°c 1007.0 hPa 92% 0.0mm
20/01:00am WSW 3 kts 22.3°c 1007.2 hPa 93% 0.0mm
20/12:30am WSW 2-4 kts 22.3°c 1007.3 hPa 91% 0.0mm
20/12:00am WNW 2-3 kts 22.4°c 1007.7 hPa 90% 0.0mm